| time (UTC) | temp C | wind direction | speed KPH | gust KPH | rain 1hr cm | rain 24hr cm | rain mn cm | humidity % | barometer mb |
| 20260506200904 | 9 | 109 | 1.6 | 11.3 | 0.00 | 0.00 | 0.00 | 65 | 1009.9 |
| 20260506200004 | 9 | 128 | 1.6 | 4.8 | 0.00 | 0.00 | 0.00 | 65 | 1010.0 |
| 20260506195403 | 9 | 120 | 1.6 | 4.8 | 0.00 | 0.00 | 0.00 | 65 | 1010.0 |
| 20260506194503 | 9 | 119 | 1.6 | 1.6 | 0.00 | 0.00 | 0.00 | 65 | 1009.8 |
| 20260506193605 | 9 | 140 | 0.0 | 3.2 | 0.00 | 0.00 | 0.00 | 64 | 1009.8 |
| 20260506192705 | 10 | 161 | 0.0 | 3.2 | 0.00 | 0.00 | 0.00 | 64 | 1009.9 |
| 20260506191806 | 10 | 127 | 1.6 | 4.8 | 0.00 | 0.00 | 0.00 | 64 | 1010.0 |
| 20260506190903 | 10 | 189 | 1.6 | 4.8 | 0.00 | 0.00 | 0.00 | 64 | 1010.0 |
| 20260506190004 | 10 | 195 | 3.2 | 4.8 | 0.00 | 0.00 | 0.00 | 64 | 1010.1 |
| 20260506185403 | 10 | 185 | 3.2 | 4.8 | 0.00 | 0.00 | 0.00 | 63 | 1010.0 |
| 20260506184504 | 10 | 197 | 4.8 | 9.7 | 0.00 | 0.00 | 0.00 | 63 | 1010.1 |
| 20260506183604 | 10 | 196 | 6.4 | 9.7 | 0.00 | 0.00 | 0.00 | 63 | 1010.1 |
| 20260506182704 | 10 | 192 | 6.4 | 9.7 | 0.00 | 0.00 | 0.00 | 61 | 1010.1 |
| 20260506181806 | 11 | 196 | 8.0 | 16.1 | 0.00 | 0.00 | 0.00 | 62 | 1010.1 |
| 20260506180903 | 11 | 208 | 8.0 | 16.1 | 0.00 | 0.00 | 0.00 | 61 | 1010.0 |
| 20260506180004 | 11 | 208 | 8.0 | 16.1 | 0.00 | 0.00 | 0.00 | 60 | 1009.8 |
| 20260506175404 | 11 | 197 | 6.4 | 11.3 | 0.00 | 0.00 | 0.00 | 63 | 1009.8 |
| 20260506174504 | 11 | 194 | 6.4 | 11.3 | 0.00 | 0.00 | 0.00 | 62 | 1009.8 |
| 20260506173624 | 11 | 199 | 6.4 | 9.7 | 0.00 | 0.00 | 0.00 | 62 | 1009.8 |
| 20260506172724 | 12 | 201 | 6.4 | 9.7 | 0.00 | 0.00 | 0.00 | 61 | 1009.9 |
| 20260506171804 | 12 | 202 | 6.4 | 12.9 | 0.00 | 0.00 | 0.00 | 62 | 1009.9 |
| 20260506170924 | 12 | 206 | 6.4 | 11.3 | 0.00 | 0.00 | 0.00 | 59 | 1010.0 |
| 20260506170005 | 12 | 205 | 6.4 | 12.9 | 0.00 | 0.00 | 0.00 | 58 | 1010.3 |
| 20260506165403 | 12 | 210 | 8.0 | 12.9 | 0.00 | 0.00 | 0.00 | 58 | 1010.3 |
| 20260506164504 | 12 | 203 | 6.4 | 11.3 | 0.00 | 0.00 | 0.00 | 56 | 1010.2 |
| 20260506163604 | 12 | 194 | 6.4 | 11.3 | 0.00 | 0.00 | 0.00 | 55 | 1010.1 |
| 20260506162703 | 12 | 205 | 4.8 | 9.7 | 0.00 | 0.00 | 0.00 | 56 | 1010.4 |
| 20260506161804 | 12 | 205 | 4.8 | 9.7 | 0.00 | 0.00 | 0.00 | 53 | 1010.3 |
| 20260506160904 | 12 | 202 | 4.8 | 11.3 | 0.00 | 0.00 | 0.00 | 53 | 1010.4 |
| 20260506160004 | 13 | 204 | 4.8 | 9.7 | 0.00 | 0.00 | 0.00 | 51 | 1010.5 |
| 20260506155403 | 13 | 205 | 3.2 | 9.7 | 0.00 | 0.00 | 0.00 | 51 | 1010.6 |
| 20260506154524 | 13 | 211 | 4.8 | 11.3 | 0.00 | 0.00 | 0.00 | 51 | 1010.6 |
| 20260506153624 | 13 | 207 | 4.8 | 9.7 | 0.00 | 0.00 | 0.00 | 48 | 1010.4 |
| 20260506152703 | 13 | 217 | 4.8 | 11.3 | 0.00 | 0.00 | 0.00 | 48 | 1010.7 |
| 20260506151825 | 13 | 212 | 4.8 | 11.3 | 0.00 | 0.00 | 0.00 | 47 | 1010.8 |
| 20260506150903 | 13 | 216 | 8.0 | 12.9 | 0.00 | 0.00 | 0.00 | 48 | 1011.0 |
| 20260506150004 | 14 | 224 | 8.0 | 16.1 | 0.00 | 0.00 | 0.00 | 46 | 1011.0 |
| 20260506145403 | 14 | 221 | 9.7 | 16.1 | 0.00 | 0.00 | 0.00 | 48 | 1011.0 |
| 20260506144503 | 14 | 216 | 9.7 | 16.1 | 0.00 | 0.00 | 0.00 | 48 | 1011.0 |
| 20260506143603 | 14 | 210 | 9.7 | 16.1 | 0.00 | 0.00 | 0.00 | 46 | 1011.2 |
| 20260506142703 | 15 | 213 | 8.0 | 16.1 | 0.00 | 0.00 | 0.00 | 46 | 1011.4 |
| 20260506141804 | 15 | 205 | 6.4 | 16.1 | 0.00 | 0.00 | 0.00 | 47 | 1011.2 |
| 20260506140904 | 14 | 208 | 6.4 | 12.9 | 0.00 | 0.00 | 0.00 | 48 | 1011.3 |
| 20260506140004 | 14 | 210 | 6.4 | 12.9 | 0.00 | 0.00 | 0.00 | 46 | 1011.3 |
| 20260506135404 | 14 | 206 | 6.4 | 12.9 | 0.00 | 0.00 | 0.00 | 46 | 1011.6 |
| 20260506134503 | 15 | 197 | 6.4 | 12.9 | 0.00 | 0.00 | 0.00 | 47 | 1011.6 |
| 20260506133624 | 14 | 202 | 8.0 | 16.1 | 0.00 | 0.00 | 0.00 | 48 | 1011.7 |
| 20260506132703 | 13 | 222 | 9.7 | 17.7 | 0.00 | 0.00 | 0.00 | 46 | 1011.8 |
| 20260506131804 | 13 | 205 | 8.0 | 14.5 | 0.00 | 0.00 | 0.00 | 45 | 1011.6 |
| 20260506130903 | 14 | 208 | 6.4 | 12.9 | 0.00 | 0.00 | 0.00 | 45 | 1011.7 |
| 20260506130004 | 14 | 182 | 3.2 | 6.4 | 0.00 | 0.00 | 0.00 | 42 | 1011.7 |
| 20260506125403 | 14 | 206 | 4.8 | 9.7 | 0.00 | 0.00 | 0.00 | 46 | 1011.8 |
| 20260506124504 | 14 | 201 | 6.4 | 14.5 | 0.00 | 0.00 | 0.00 | 43 | 1012.0 |
| 20260506123604 | 13 | 191 | 4.8 | 11.3 | 0.00 | 0.00 | 0.00 | 46 | 1011.8 |
| 20260506122703 | 13 | 139 | 3.2 | 9.7 | 0.00 | 0.00 | 0.00 | 44 | 1012.0 |
| 20260506121826 | 13 | 124 | 3.2 | 9.7 | 0.00 | 0.00 | 0.00 | 44 | 1011.8 |
| 20260506120903 | 13 | 159 | 3.2 | 9.7 | 0.00 | 0.00 | 0.00 | 48 | 1012.1 |
| 20260506120006 | 12 | 81 | 3.2 | 11.3 | 0.00 | 0.00 | 0.00 | 49 | 1012.0 |
| 20260506115404 | 12 | 71 | 4.8 | 17.7 | 0.00 | 0.00 | 0.00 | 47 | 1012.1 |
| 20260506114505 | 12 | 65 | 6.4 | 16.1 | 0.00 | 0.00 | 0.00 | 47 | 1012.3 |
| 20260506113624 | 11 | 85 | 6.4 | 17.7 | 0.00 | 0.00 | 0.00 | 48 | 1012.2 |
| 20260506112703 | 11 | 43 | 4.8 | 17.7 | 0.00 | 0.00 | 0.00 | 47 | 1012.2 |
| 20260506111824 | 11 | 79 | 6.4 | 17.7 | 0.00 | 0.00 | 0.00 | 49 | 1012.4 |
| 20260506110903 | 11 | 71 | 4.8 | 12.9 | 0.00 | 0.00 | 0.00 | 48 | 1012.5 |
| 20260506110004 | 11 | 86 | 4.8 | 12.9 | 0.00 | 0.00 | 0.00 | 50 | 1012.5 |
| 20260506105404 | 10 | 75 | 4.8 | 12.9 | 0.00 | 0.00 | 0.00 | 50 | 1012.7 |
| 20260506104503 | 10 | 84 | 4.8 | 17.7 | 0.00 | 0.00 | 0.00 | 49 | 1012.8 |
| 20260506103625 | 10 | 91 | 4.8 | 11.3 | 0.00 | 0.00 | 0.00 | 52 | 1012.8 |
| 20260506102725 | 10 | 97 | 4.8 | 17.7 | 0.00 | 0.00 | 0.00 | 55 | 1012.9 |
| 20260506101804 | 10 | 116 | 4.8 | 14.5 | 0.00 | 0.00 | 0.00 | 55 | 1012.8 |
| 20260506100904 | 9 | 79 | 4.8 | 14.5 | 0.00 | 0.00 | 0.00 | 54 | 1012.9 |
| 20260506100005 | 9 | 69 | 1.6 | 17.7 | 0.00 | 0.00 | 0.00 | 58 | 1013.1 |
| 20260506095403 | 9 | 100 | 1.6 | 17.7 | 0.00 | 0.00 | 0.00 | 56 | 1013.1 |
| 20260506094525 | 8 | 114 | 3.2 | 9.7 | 0.00 | 0.00 | 0.00 | 60 | 1013.3 |
| 20260506093603 | 8 | 113 | 3.2 | 14.5 | 0.00 | 0.00 | 0.00 | 60 | 1013.1 |
| 20260506092703 | 8 | 108 | 4.8 | 12.9 | 0.00 | 0.00 | 0.00 | 61 | 1013.4 |
| 20260506091803 | 8 | 92 | 4.8 | 12.9 | 0.00 | 0.00 | 0.00 | 59 | 1013.2 |
| 20260506090925 | 8 | 108 | 3.2 | 12.9 | 0.00 | 0.00 | 0.00 | 61 | 1013.6 |
| 20260506090004 | 7 | 143 | 3.2 | 12.9 | 0.00 | 0.00 | 0.00 | 64 | 1013.6 |
| 20260506085404 | 7 | 117 | 3.2 | 11.3 | 0.00 | 0.00 | 0.00 | 64 | 1013.6 |
| 20260506084504 | 7 | 174 | 3.2 | 6.4 | 0.00 | 0.00 | 0.00 | 65 | 1013.7 |
| 20260506083605 | 6 | 154 | 3.2 | 9.7 | 0.00 | 0.00 | 0.00 | 66 | 1013.7 |
| 20260506082704 | 6 | 87 | 3.2 | 9.7 | 0.00 | 0.00 | 0.00 | 67 | 1013.8 |
| 20260506081805 | 6 | 73 | 3.2 | 9.7 | 0.00 | 0.00 | 0.00 | 68 | 1013.6 |
| 20260506080905 | 6 | 68 | 3.2 | 14.5 | 0.00 | 0.00 | 0.00 | 66 | 1013.6 |
| 20260506072703 | 6 | 82 | 3.2 | 11.3 | 0.00 | 0.00 | 0.00 | 69 | 1013.7 |
| 20260506071804 | 6 | 67 | 1.6 | 11.3 | 0.00 | 0.00 | 0.00 | 71 | 1013.5 |
| 20260506070905 | 6 | 33 | 3.2 | 11.3 | 0.00 | 0.00 | 0.00 | 69 | 1013.6 |
| 20260506061803 | 5 | 42 | 3.2 | 9.7 | 0.00 | 0.00 | 0.00 | 72 | 1013.7 |
| 20260506060904 | 5 | 32 | 1.6 | 6.4 | 0.00 | 0.00 | 0.00 | 72 | 1013.5 |
| 20260506050904 | 5 | 337 | 1.6 | 4.8 | 0.00 | 0.00 | 0.00 | 75 | 1013.6 |
| 20260506044503 | 5 | 338 | 1.6 | 4.8 | 0.00 | 0.00 | 0.00 | 75 | 1013.5 |
| 20260506043604 | 5 | 333 | 1.6 | 4.8 | 0.00 | 0.00 | 0.00 | 75 | 1013.6 |
| 20260506042704 | 5 | 335 | 1.6 | 4.8 | 0.00 | 0.00 | 0.00 | 74 | 1013.6 |
| 20260506041804 | 5 | 346 | 0.0 | 3.2 | 0.00 | 0.00 | 0.00 | 74 | 1013.8 |
| 20260506040904 | 5 | 345 | 1.6 | 3.2 | 0.00 | 0.00 | 0.00 | 73 | 1013.8 |
| 20260506040024 | 5 | 344 | 0.0 | 3.2 | 0.00 | 0.00 | 0.00 | 73 | 1013.7 |
| 20260506035404 | 5 | 342 | 0.0 | 3.2 | 0.00 | 0.00 | 0.00 | 73 | 1013.6 |
| 20260506034504 | 5 | 348 | 1.6 | 6.4 | 0.00 | 0.00 | 0.00 | 73 | 1013.8 |
| 20260506033624 | 5 | 346 | 1.6 | 4.8 | 0.00 | 0.00 | 0.00 | 72 | 1013.7 |
| 20260506032705 | 5 | 337 | 1.6 | 6.4 | 0.00 | 0.00 | 0.00 | 72 | 1013.7 |
| 20260506031804 | 5 | 344 | 3.2 | 11.3 | 0.00 | 0.00 | 0.00 | 72 | 1013.6 |
| 20260506030903 | 5 | 27 | 3.2 | 9.7 | 0.00 | 0.00 | 0.00 | 72 | 1013.9 |
| 20260506030004 | 5 | 4 | 3.2 | 9.7 | 0.00 | 0.00 | 0.00 | 72 | 1014.0 |
| 20260506025403 | 5 | 350 | 1.6 | 4.8 | 0.00 | 0.00 | 0.00 | 72 | 1013.9 |
| 20260506024503 | 5 | 360 | 1.6 | 4.8 | 0.00 | 0.00 | 0.00 | 72 | 1013.9 |
| 20260506023603 | 5 | 1 | 1.6 | 6.4 | 0.00 | 0.00 | 0.00 | 72 | 1013.9 |
| 20260506022703 | 5 | 342 | 1.6 | 9.7 | 0.00 | 0.00 | 0.00 | 72 | 1013.9 |
| 20260506021804 | 5 | 351 | 1.6 | 4.8 | 0.00 | 0.00 | 0.00 | 73 | 1013.9 |
| 20260506020903 | 5 | 333 | 1.6 | 6.4 | 0.00 | 0.00 | 0.00 | 72 | 1013.8 |
| 20260506020004 | 5 | 339 | 1.6 | 4.8 | 0.00 | 0.00 | 0.00 | 72 | 1013.9 |
| 20260506015404 | 5 | 338 | 1.6 | 4.8 | 0.00 | 0.00 | 0.00 | 72 | 1013.9 |
| 20260506014503 | 5 | 352 | 1.6 | 6.4 | 0.00 | 0.00 | 0.00 | 72 | 1013.9 |
| 20260506013603 | 6 | 14 | 3.2 | 9.7 | 0.00 | 0.00 | 0.00 | 71 | 1014.1 |
| 20260506012703 | 6 | 1 | 3.2 | 6.4 | 0.00 | 0.00 | 0.00 | 71 | 1014.2 |
| 20260506011804 | 6 | 10 | 3.2 | 16.1 | 0.00 | 0.00 | 0.00 | 71 | 1014.0 |
| 20260506010904 | 6 | 11 | 3.2 | 16.1 | 0.00 | 0.00 | 0.00 | 72 | 1014.0 |
| 20260506010004 | 6 | 9 | 1.6 | 4.8 | 0.00 | 0.00 | 0.00 | 73 | 1014.1 |
| 20260506005403 | 6 | 359 | 1.6 | 4.8 | 0.00 | 0.00 | 0.00 | 73 | 1014.3 |
| 20260506004505 | 6 | 8 | 1.6 | 4.8 | 0.00 | 0.00 | 0.00 | 73 | 1014.4 |
| 20260506003626 | 6 | 7 | 3.2 | 6.4 | 0.00 | 0.00 | 0.00 | 73 | 1014.3 |
| 20260506002703 | 6 | 346 | 1.6 | 6.4 | 0.00 | 0.00 | 0.00 | 73 | 1014.4 |
| 20260506001803 | 6 | 336 | 1.6 | 6.4 | 0.00 | 0.00 | 0.00 | 73 | 1014.3 |
| 20260506000905 | 6 | 334 | 1.6 | 4.8 | 0.00 | 0.00 | 0.00 | 73 | 1014.5 |
| 20260506000004 | 6 | 358 | 3.2 | 4.8 | 0.00 | 0.00 | 0.00 | 73 | 1014.3 |
| 20260505235403 | 6 | 342 | 1.6 | 4.8 | 0.00 | 0.00 | 0.00 | 73 | 1014.4 |
| 20260505234503 | 6 | 9 | 1.6 | 4.8 | 0.00 | 0.00 | 0.00 | 73 | 1014.4 |
| 20260505233603 | 6 | 342 | 1.6 | 4.8 | 0.00 | 0.00 | 0.00 | 73 | 1014.2 |
| 20260505232703 | 6 | 354 | 1.6 | 9.7 | 0.00 | 0.00 | 0.00 | 73 | 1014.2 |
| 20260505231805 | 6 | 354 | 1.6 | 4.8 | 0.00 | 0.00 | 0.00 | 72 | 1014.2 |
| 20260505230924 | 6 | 344 | 0.0 | 3.2 | 0.00 | 0.00 | 0.00 | 72 | 1014.3 |
| 20260505230003 | 6 | 343 | 1.6 | 4.8 | 0.00 | 0.00 | 0.00 | 71 | 1014.3 |
| 20260505225405 | 6 | 343 | 1.6 | 4.8 | 0.00 | 0.00 | 0.00 | 70 | 1014.6 |
| 20260505224503 | 6 | 345 | 1.6 | 6.4 | 0.00 | 0.00 | 0.00 | 69 | 1014.7 |
| 20260505223603 | 6 | 353 | 3.2 | 14.5 | 0.00 | 0.00 | 0.00 | 69 | 1014.6 |
| 20260505222703 | 6 | 5 | 3.2 | 11.3 | 0.00 | 0.00 | 0.00 | 69 | 1014.6 |
| 20260505221803 | 6 | 348 | 1.6 | 6.4 | 0.00 | 0.00 | 0.00 | 69 | 1014.5 |
| 20260505220903 | 6 | 3 | 3.2 | 11.3 | 0.00 | 0.00 | 0.00 | 69 | 1014.5 |
| 20260505220004 | 6 | 26 | 4.8 | 11.3 | 0.00 | 0.00 | 0.00 | 69 | 1014.6 |
| 20260505215403 | 6 | 11 | 3.2 | 11.3 | 0.00 | 0.00 | 0.00 | 69 | 1014.7 |
| 20260505214525 | 6 | 355 | 1.6 | 6.4 | 0.00 | 0.00 | 0.00 | 69 | 1014.5 |
| 20260505213627 | 6 | 11 | 1.6 | 9.7 | 0.00 | 0.00 | 0.00 | 69 | 1014.4 |
| 20260505212724 | 6 | 19 | 3.2 | 9.7 | 0.00 | 0.00 | 0.00 | 69 | 1014.5 |
| 20260505211824 | 6 | 359 | 3.2 | 11.3 | 0.00 | 0.00 | 0.00 | 69 | 1014.2 |
| 20260505210903 | 6 | 34 | 4.8 | 12.9 | 0.00 | 0.00 | 0.00 | 69 | 1014.3 |
| 20260505210004 | 7 | 35 | 3.2 | 12.9 | 0.00 | 0.00 | 0.00 | 70 | 1014.2 |
| 20260505205425 | 7 | 27 | 3.2 | 12.9 | 0.00 | 0.00 | 0.00 | 70 | 1014.3 |
| 20260505204505 | 7 | 55 | 4.8 | 12.9 | 0.00 | 0.00 | 0.00 | 69 | 1014.1 |
| 20260505203603 | 7 | 55 | 4.8 | 20.9 | 0.00 | 0.00 | 0.00 | 68 | 1014.2 |
| 20260505202704 | 7 | 2 | 3.2 | 14.5 | 0.00 | 0.00 | 0.00 | 68 | 1014.1 |
| 20260505201803 | 7 | 34 | 4.8 | 16.1 | 0.00 | 0.00 | 0.00 | 68 | 1014.1 |